sat.trackr.live / text

‹ back to catalog

STARLINK-35804

NORAD 66371 · 2025-254Z

PAYLOAD ACTIVE UNKNOWN

§ Identity

Operator
Country
US
Launch date
2025-11-06
Launch site
AFWTR
Launch vehicle
Mass (kg)
RCS (m²)

Purposes: comms

External: N2YO · Heavens-Above · Gunter

§ Orbital elements

Epoch: 2026-09-20T14:01:12.879840Z

Period
93.85 min
Inclination
53.1582°
Eccentricity
0.0001867
Mean motion
15.34405364 rev/d
Perigee alt
461.4 km
Apogee alt
464.0 km
Semi-major
6,840.8 km
B*
5.2709e-4
RAAN
42.9782°
Arg perigee
48.4836°
Mean anomaly
311.6327°
Rev number
4,887

§ Raw data

STARLINK-358041 66371U 25254Z   26263.58417685  .00017477  00000+0  52709-3 0  99952 66371  53.1582  42.9782 0001867  48.4836 311.6327 15.34405364 48871

JSON: /api/v1/satellites/66371 · /tle

For live sub-satellite position, see the globe view (requires WebGL).

§ Visibility from observer

Set your observer location to see the next 7 days of passes ≥ 10°. The values pass through the URL so the page stays shareable.

No JS? Fill the form by hand. The geolocation button needs JavaScript.